Weather History for Grand Rapids, MN

Change the Weather History Date:

Monday, November 7, 2011

  Actual Average Record
Temperature  
Mean Temperature 38 °F -  
Max Temperature 41 °F 40 °F 67 °F (1916)
Min Temperature 35 °F 24 °F -8 °F (1919)
Degree Days  
Heating Degree Days 27    
Moisture  
Dew Point 22 °F    
Average Humidity 54    
Maximum Humidity 60    
Minimum Humidity 52    
Precipitation  
Precipitation 0.00 in - - ()
Sea Level Pressure  
Sea Level Pressure 29.97 in    
Wind  
Wind Speed 13 mph (West)    
Max Wind Speed 20 mph    
Max Gust Speed 32 mph    
Visibility 10 miles    
Events      
Averages and records for this station are not official NWS values.
T = Trace of Precipitation, MM = Missing Value Source: NWS Daily Summary

Daily Weather History Graph

Daily Weather History Graph

Search for Another Location

Airport:

Trip Planner

Search our weather history database for the weather conditions in past years. The results will help you decide how hot, cold, wet, or windy it might be!

Date:

Astronomy

Nov. 07, 2011 Rise Set
Actual Time 7:05 AM CST 4:48 PM CST
Civil Twilight 6:33 AM CST 5:21 PM CST
Nautical Twilight 5:56 AM CST 5:57 PM CST
Astronomical Twilight 5:21 AM CST 6:33 PM CST
Moon 3:07 PM CST (11/7) 4:00 AM CST (11/7)
Length of Visible Light 10h 48m
Length of Day
9h 43m
Waxing Gibbous, 92% of the Moon is Illuminated
Nov 7
Waxing Gibbous
Nov 10
Full
Nov 18
Last Quarter
Nov 25
New
Dec 2
First Quarter

Hourly Weather History & Observations

Time (CST) Temp. Windchill Dew Point Humidity Pressure Visibility Wind Dir Wind Speed Gust Speed Precip Events Conditions
12:15 AM 37.4 °F 28.9 °F 21.2 °F 52% 29.78 in 10.0 mi SW 13.8 mph 19.6 mph N/A   Partly Cloudy
12:35 AM 37.4 °F 30.3 °F 21.2 °F 52% 29.78 in 10.0 mi SSW 10.4 mph 19.6 mph N/A   Clear
12:55 AM 35.6 °F 28.0 °F 21.2 °F 56% 29.79 in 10.0 mi SW 10.4 mph 23.0 mph N/A   Clear
1:15 AM 35.6 °F 28.0 °F 21.2 °F 56% 29.79 in 10.0 mi SW 10.4 mph - N/A   Clear
1:35 AM 35.6 °F 27.1 °F 19.4 °F 52% 29.79 in 10.0 mi SW 12.7 mph 19.6 mph N/A   Clear
1:55 AM 35.6 °F 26.6 °F 19.4 °F 52% 29.80 in 10.0 mi SW 13.8 mph 24.2 mph N/A   Scattered Clouds
2:15 AM 35.6 °F 26.6 °F 21.2 °F 56% 29.80 in 10.0 mi SW 13.8 mph 19.6 mph N/A   Overcast
2:35 AM 35.6 °F 25.9 °F 19.4 °F 52% 29.80 in 10.0 mi SW 16.1 mph 21.9 mph N/A   Overcast
2:55 AM 35.6 °F 26.6 °F 19.4 °F 52% 29.80 in 10.0 mi SW 13.8 mph 20.7 mph N/A   Overcast
3:15 AM 35.6 °F 28.0 °F 19.4 °F 52% 29.80 in 10.0 mi WSW 10.4 mph 23.0 mph N/A   Overcast
3:35 AM 35.6 °F 25.9 °F 19.4 °F 52% 29.80 in 10.0 mi SW 16.1 mph 26.5 mph N/A   Overcast
3:55 AM 35.6 °F 28.0 °F 19.4 °F 52% 29.81 in 10.0 mi SW 10.4 mph 25.3 mph N/A   Overcast
4:15 AM 35.6 °F 25.5 °F 19.4 °F 52% 29.82 in 10.0 mi WSW 17.3 mph 29.9 mph N/A   Overcast
4:35 AM 35.6 °F 25.5 °F 19.4 °F 52% 29.83 in 10.0 mi WSW 17.3 mph 32.2 mph N/A   Overcast
4:55 AM 35.6 °F 24.8 °F 19.4 °F 52% 29.83 in 10.0 mi West 19.6 mph 29.9 mph N/A   Overcast
5:15 AM 35.6 °F 27.5 °F 19.4 °F 52% 29.84 in 10.0 mi WSW 11.5 mph 27.6 mph N/A   Overcast
5:35 AM 35.6 °F 25.2 °F 19.4 °F 52% 29.85 in 10.0 mi WSW 18.4 mph 26.5 mph N/A   Overcast
5:55 AM 35.6 °F 25.5 °F 21.2 °F 56% 29.87 in 10.0 mi WSW 17.3 mph 27.6 mph N/A   Overcast
6:15 AM 35.6 °F 25.9 °F 21.2 °F 56% 29.87 in 10.0 mi West 16.1 mph 25.3 mph N/A   Overcast
6:35 AM 35.6 °F 26.2 °F 21.2 °F 56% 29.89 in 10.0 mi West 15.0 mph 24.2 mph N/A   Overcast
6:55 AM 35.6 °F 26.2 °F 19.4 °F 52% 29.90 in 10.0 mi West 15.0 mph 27.6 mph N/A   Overcast
7:15 AM 35.6 °F 28.0 °F 19.4 °F 52% 29.91 in 10.0 mi West 10.4 mph 26.5 mph N/A   Overcast
7:35 AM 35.6 °F 26.2 °F 21.2 °F 56% 29.92 in 10.0 mi West 15.0 mph 26.5 mph N/A   Overcast
7:55 AM 35.6 °F 25.9 °F 21.2 °F 56% 29.93 in 10.0 mi West 16.1 mph 21.9 mph N/A   Overcast
8:15 AM 35.6 °F 25.9 °F 21.2 °F 56% 29.94 in 10.0 mi West 16.1 mph 29.9 mph N/A   Overcast
8:35 AM 35.6 °F 26.6 °F 21.2 °F 56% 29.96 in 10.0 mi West 13.8 mph 23.0 mph N/A   Overcast
8:55 AM 35.6 °F 28.0 °F 21.2 °F 56% 29.97 in 10.0 mi West 10.4 mph - N/A   Overcast
9:15 AM 35.6 °F 26.6 °F 21.2 °F 56% 29.98 in 10.0 mi West 13.8 mph 26.5 mph N/A   Overcast
9:35 AM 35.6 °F 27.5 °F 21.2 °F 56% 29.99 in 10.0 mi West 11.5 mph 23.0 mph N/A   Overcast
9:55 AM 37.4 °F 28.5 °F 21.2 °F 52% 29.99 in 10.0 mi WNW 15.0 mph 20.7 mph N/A   Overcast
10:15 AM 37.4 °F 29.8 °F 21.2 °F 52% 30.01 in 10.0 mi West 11.5 mph 23.0 mph N/A   Overcast
10:35 AM 37.4 °F 29.8 °F 21.2 °F 52% 30.02 in 10.0 mi West 11.5 mph 23.0 mph N/A   Overcast
10:55 AM 37.4 °F 28.9 °F 21.2 °F 52% 30.04 in 10.0 mi WSW 13.8 mph 24.2 mph N/A   Overcast
11:15 AM 37.4 °F 29.3 °F 21.2 °F 52% 30.05 in 10.0 mi WSW 12.7 mph 23.0 mph N/A   Overcast
11:35 AM 37.4 °F 30.3 °F 23.0 °F 56% 30.06 in 10.0 mi West 10.4 mph 18.4 mph N/A   Overcast
11:55 AM 37.4 °F 28.9 °F 24.8 °F 60% 30.06 in 10.0 mi West 13.8 mph 20.7 mph N/A   Overcast
12:15 PM 37.4 °F 28.9 °F 23.0 °F 56% 30.07 in 10.0 mi WSW 13.8 mph 19.6 mph N/A   Overcast
12:35 PM 39.2 °F 30.8 °F 24.8 °F 56% 30.07 in 10.0 mi West 15.0 mph 19.6 mph N/A   Overcast
12:55 PM 39.2 °F 31.2 °F 23.0 °F 52% 30.07 in 10.0 mi West 13.8 mph 23.0 mph N/A   Overcast
1:15 PM 39.2 °F 31.2 °F 24.8 °F 56% 30.08 in 10.0 mi West 13.8 mph 20.7 mph N/A   Overcast
1:35 PM 39.2 °F 31.6 °F 24.8 °F 56% 30.08 in 10.0 mi WSW 12.7 mph 16.1 mph N/A   Overcast
1:55 PM 41.0 °F 34.3 °F 24.8 °F 53% 30.08 in 10.0 mi West 11.5 mph 19.6 mph N/A   Overcast
2:15 PM 39.2 °F 32.0 °F 23.0 °F 52% 30.08 in 10.0 mi WNW 11.5 mph - N/A   Mostly Cloudy
2:35 PM 39.2 °F 31.6 °F 24.8 °F 56% 30.08 in 10.0 mi West 12.7 mph 19.6 mph N/A   Scattered Clouds
2:55 PM 39.2 °F 31.2 °F 24.8 °F 56% 30.09 in 10.0 mi WNW 13.8 mph 18.4 mph N/A   Mostly Cloudy
3:15 PM 39.2 °F 32.0 °F 24.8 °F 56% 30.09 in 10.0 mi WNW 11.5 mph 19.6 mph N/A   Mostly Cloudy
3:35 PM 37.4 °F 29.8 °F 23.0 °F 56% 30.11 in 10.0 mi West 11.5 mph 17.3 mph N/A   Mostly Cloudy
3:55 PM 37.4 °F 29.8 °F 23.0 °F 56% 30.12 in 10.0 mi West 11.5 mph 19.6 mph N/A   Mostly Cloudy
4:15 PM 37.4 °F 29.8 °F 23.0 °F 56% 30.13 in 10.0 mi West 11.5 mph 17.3 mph N/A   Overcast
4:35 PM 37.4 °F 30.8 °F 23.0 °F 56% 30.14 in 10.0 mi WNW 9.2 mph - N/A   Overcast
4:55 PM 37.4 °F 32.1 °F 23.0 °F 56% 30.14 in 10.0 mi West 6.9 mph - N/A   Overcast
5:15 PM 37.4 °F 31.4 °F 23.0 °F 56% 30.15 in 10.0 mi West 8.1 mph - N/A   Overcast
5:35 PM 37.4 °F 30.8 °F 23.0 °F 56% 30.15 in 10.0 mi WNW 9.2 mph - N/A   Mostly Cloudy
5:55 PM 35.6 °F 30.7 °F 23.0 °F 60% 30.16 in 10.0 mi West 5.8 mph - N/A   Partly Cloudy
6:15 PM 35.6 °F 31.7 °F 23.0 °F 60% 30.16 in 10.0 mi WNW 4.6 mph - N/A   Clear
6:35 PM 35.6 °F 32.8 °F 23.0 °F 60% 30.16 in 10.0 mi West 3.5 mph - N/A   Clear
6:55 PM 35.6 °F - 23.0 °F 60% 30.17 in 10.0 mi Calm Calm - N/A   Clear
7:15 PM 30.2 °F 26.7 °F 19.4 °F 64% 30.17 in 10.0 mi South 3.5 mph - N/A   Clear
7:35 PM 28.4 °F 23.3 °F 19.4 °F 69% 30.17 in 10.0 mi South 4.6 mph - N/A   Clear
7:55 PM 28.4 °F 24.6 °F 19.4 °F 69% 30.18 in 10.0 mi South 3.5 mph - N/A   Clear
8:15 PM 26.6 °F 21.2 °F 19.4 °F 74% 30.18 in 10.0 mi South 4.6 mph - N/A   Clear
8:35 PM 26.6 °F 22.6 °F 19.4 °F 74% 30.18 in 10.0 mi South 3.5 mph - N/A   Clear
8:55 PM 26.6 °F 22.6 °F 19.4 °F 74% 30.18 in 10.0 mi SSW 3.5 mph - N/A   Clear
9:15 PM 26.6 °F 22.6 °F 19.4 °F 74% 30.17 in 10.0 mi SSW 3.5 mph - N/A   Clear
9:35 PM 24.8 °F 19.1 °F 19.4 °F 80% 30.17 in 10.0 mi South 4.6 mph - N/A   Clear
9:55 PM 24.8 °F 20.5 °F 17.6 °F 74% 30.18 in 10.0 mi SSW 3.5 mph - N/A   Clear
10:15 PM 24.8 °F 20.5 °F 17.6 °F 74% 30.16 in 10.0 mi WSW 3.5 mph - N/A   Clear
10:35 PM 24.8 °F 20.5 °F 17.6 °F 74% 30.17 in 10.0 mi South 3.5 mph - N/A   Clear
10:55 PM 24.8 °F - 19.4 °F 80% 30.17 in 10.0 mi Calm Calm - N/A   Clear
11:15 PM 24.8 °F - 19.4 °F 80% 30.16 in 10.0 mi Calm Calm - N/A   Clear
11:35 PM 23.0 °F - 17.6 °F 80% 30.17 in 10.0 mi Calm Calm - N/A   Clear
11:55 PM 23.0 °F 18.4 °F 17.6 °F 80% 30.17 in 10.0 mi SSE 3.5 mph - N/A   Clear